Year,Month,Day,Hour,Minute,Value (Times are PST for insolation in W/m^2)
2017,02,22,00,00,0.00
2017,02,22,00,01,0.00
2017,02,22,00,02,0.00
2017,02,22,00,03,0.00
2017,02,22,00,04,0.00
2017,02,22,00,05,0.00
2017,02,22,00,06,0.00
2017,02,22,00,07,0.00
2017,02,22,00,08,0.00
2017,02,22,00,09,0.00
2017,02,22,00,10,0.00
2017,02,22,00,11,0.00
2017,02,22,00,12,0.00
2017,02,22,00,13,0.00
2017,02,22,00,14,0.00
2017,02,22,00,15,0.00
2017,02,22,00,16,0.00
2017,02,22,00,17,0.00
2017,02,22,00,18,0.00
2017,02,22,00,19,0.00
2017,02,22,00,20,0.00
2017,02,22,00,21,0.00
2017,02,22,00,22,0.00
2017,02,22,00,23,0.00
2017,02,22,00,24,0.00
2017,02,22,00,25,0.00
2017,02,22,00,26,0.00
2017,02,22,00,27,0.00
2017,02,22,00,28,0.00
2017,02,22,00,29,0.00
2017,02,22,00,30,0.00
2017,02,22,00,31,0.00
2017,02,22,00,32,0.00
2017,02,22,00,33,0.00
2017,02,22,00,34,0.00
2017,02,22,00,35,0.00
2017,02,22,00,36,0.00
2017,02,22,00,37,0.00
2017,02,22,00,38,0.00
2017,02,22,00,39,0.00
2017,02,22,00,40,0.00
2017,02,22,00,41,0.00
2017,02,22,00,42,0.00
2017,02,22,00,43,0.00
2017,02,22,00,44,0.00
2017,02,22,00,45,0.00
2017,02,22,00,46,0.00
2017,02,22,00,47,0.00
2017,02,22,00,48,0.00
2017,02,22,00,49,0.00
2017,02,22,00,50,0.00
2017,02,22,00,51,0.00
2017,02,22,00,52,0.00
2017,02,22,00,53,0.00
2017,02,22,00,54,0.00
2017,02,22,00,55,0.00
2017,02,22,00,56,0.00
2017,02,22,00,57,0.00
2017,02,22,00,58,0.00
2017,02,22,00,59,0.00
2017,02,22,01,00,0.00
2017,02,22,01,01,0.00
2017,02,22,01,02,0.00
2017,02,22,01,03,0.00
2017,02,22,01,04,0.00
2017,02,22,01,05,0.00
2017,02,22,01,06,0.00
2017,02,22,01,07,0.00
2017,02,22,01,08,0.00
2017,02,22,01,09,0.00
2017,02,22,01,10,0.00
2017,02,22,01,11,0.00
2017,02,22,01,12,0.00
2017,02,22,01,13,0.00
2017,02,22,01,14,0.00
2017,02,22,01,15,0.00
2017,02,22,01,16,0.00
2017,02,22,01,17,0.00
2017,02,22,01,18,0.00
2017,02,22,01,19,0.00
2017,02,22,01,20,0.00
2017,02,22,01,21,0.00
2017,02,22,01,22,0.00
2017,02,22,01,23,0.00
2017,02,22,01,24,0.00
2017,02,22,01,25,0.00
2017,02,22,01,26,0.00
2017,02,22,01,27,0.00
2017,02,22,01,28,0.00
2017,02,22,01,29,0.00
2017,02,22,01,30,0.00
2017,02,22,01,31,0.00
2017,02,22,01,32,0.00
2017,02,22,01,33,0.00
2017,02,22,01,34,0.00
2017,02,22,01,35,0.00
2017,02,22,01,36,0.00
2017,02,22,01,37,0.00
2017,02,22,01,38,0.00
2017,02,22,01,39,0.00
2017,02,22,01,40,0.00
2017,02,22,01,41,0.00
2017,02,22,01,42,0.00
2017,02,22,01,43,0.00
2017,02,22,01,44,0.00
2017,02,22,01,45,0.00
2017,02,22,01,46,0.00
2017,02,22,01,47,0.00
2017,02,22,01,48,0.00
2017,02,22,01,49,0.00
2017,02,22,01,50,0.00
2017,02,22,01,51,0.00
2017,02,22,01,52,0.00
2017,02,22,01,53,0.00
2017,02,22,01,54,0.00
2017,02,22,01,55,0.00
2017,02,22,01,56,0.00
2017,02,22,01,57,0.00
2017,02,22,01,58,0.00
2017,02,22,01,59,0.00
2017,02,22,02,00,0.00
2017,02,22,02,01,0.00
2017,02,22,02,02,0.00
2017,02,22,02,03,0.00
2017,02,22,02,04,0.00
2017,02,22,02,05,0.00
2017,02,22,02,06,0.00
2017,02,22,02,07,0.00
2017,02,22,02,08,0.00
2017,02,22,02,09,0.00
2017,02,22,02,10,0.00
2017,02,22,02,11,0.00
2017,02,22,02,12,0.00
2017,02,22,02,13,0.00
2017,02,22,02,14,0.00
2017,02,22,02,15,0.00
2017,02,22,02,16,0.00
2017,02,22,02,17,0.00
2017,02,22,02,18,0.00
2017,02,22,02,19,0.00
2017,02,22,02,20,0.00
2017,02,22,02,21,0.00
2017,02,22,02,22,0.00
2017,02,22,02,23,0.00
2017,02,22,02,24,0.00
2017,02,22,02,25,0.00
2017,02,22,02,26,0.00
2017,02,22,02,27,0.00
2017,02,22,02,28,0.00
2017,02,22,02,29,0.00
2017,02,22,02,30,0.00
2017,02,22,02,31,0.00
2017,02,22,02,32,0.00
2017,02,22,02,33,0.00
2017,02,22,02,34,0.00
2017,02,22,02,35,0.00
2017,02,22,02,36,0.00
2017,02,22,02,37,0.00
2017,02,22,02,38,0.00
2017,02,22,02,39,0.00
2017,02,22,02,40,0.00
2017,02,22,02,41,0.00
2017,02,22,02,42,0.00
2017,02,22,02,43,0.00
2017,02,22,02,44,0.00
2017,02,22,02,45,0.00
2017,02,22,02,46,0.00
2017,02,22,02,47,0.00
2017,02,22,02,48,0.00
2017,02,22,02,49,0.00
2017,02,22,02,50,0.00
2017,02,22,02,51,0.00
2017,02,22,02,52,0.00
2017,02,22,02,53,0.00
2017,02,22,02,54,0.00
2017,02,22,02,55,0.00
2017,02,22,02,56,0.00
2017,02,22,02,57,0.00
2017,02,22,02,58,0.00
2017,02,22,02,59,0.00
2017,02,22,03,00,0.00
2017,02,22,03,01,0.00
2017,02,22,03,02,0.00
2017,02,22,03,03,0.00
2017,02,22,03,04,0.00
2017,02,22,03,05,0.00
2017,02,22,03,06,0.00
2017,02,22,03,07,0.00
2017,02,22,03,08,0.00
2017,02,22,03,09,0.00
2017,02,22,03,10,0.00
2017,02,22,03,11,0.00
2017,02,22,03,12,0.00
2017,02,22,03,13,0.00
2017,02,22,03,14,0.00
2017,02,22,03,15,0.00
2017,02,22,03,16,0.00
2017,02,22,03,17,0.00
2017,02,22,03,18,0.00
2017,02,22,03,19,0.00
2017,02,22,03,20,0.00
2017,02,22,03,21,0.00
2017,02,22,03,22,0.00
2017,02,22,03,23,0.00
2017,02,22,03,24,0.00
2017,02,22,03,25,0.00
2017,02,22,03,26,0.00
2017,02,22,03,27,0.00
2017,02,22,03,28,0.00
2017,02,22,03,29,0.00
2017,02,22,03,30,0.00
2017,02,22,03,31,0.00
2017,02,22,03,32,0.00
2017,02,22,03,33,0.00
2017,02,22,03,34,0.00
2017,02,22,03,35,0.00
2017,02,22,03,36,0.00
2017,02,22,03,37,0.00
2017,02,22,03,38,0.00
2017,02,22,03,39,0.00
2017,02,22,03,40,0.00
2017,02,22,03,41,0.00
2017,02,22,03,42,0.00
2017,02,22,03,43,0.00
2017,02,22,03,44,0.00
2017,02,22,03,45,0.00
2017,02,22,03,46,0.00
2017,02,22,03,47,0.00
2017,02,22,03,48,0.00
2017,02,22,03,49,0.00
2017,02,22,03,50,0.00
2017,02,22,03,51,0.00
2017,02,22,03,52,0.00
2017,02,22,03,53,0.00
2017,02,22,03,54,0.00
2017,02,22,03,55,0.00
2017,02,22,03,56,0.00
2017,02,22,03,57,0.00
2017,02,22,03,58,0.00
2017,02,22,03,59,0.00
2017,02,22,04,00,0.00
2017,02,22,04,01,0.00
2017,02,22,04,02,0.00
2017,02,22,04,03,0.00
2017,02,22,04,04,0.00
2017,02,22,04,08,0.00
2017,02,22,04,09,0.00
2017,02,22,04,10,0.00
2017,02,22,04,11,0.00
2017,02,22,04,12,0.00
2017,02,22,04,13,0.00
2017,02,22,04,14,0.00
2017,02,22,04,15,0.00
2017,02,22,04,16,0.00
2017,02,22,04,17,0.00
2017,02,22,04,18,0.00
2017,02,22,04,19,0.00
2017,02,22,04,20,0.00
2017,02,22,04,21,0.00
2017,02,22,04,22,0.00
2017,02,22,04,23,0.00
2017,02,22,04,24,0.00
2017,02,22,04,25,0.00
2017,02,22,04,26,0.00
2017,02,22,04,27,0.00
2017,02,22,04,28,0.00
2017,02,22,04,29,0.00
2017,02,22,04,30,0.00
2017,02,22,04,31,0.00
2017,02,22,04,32,0.00
2017,02,22,04,33,0.00
2017,02,22,04,34,0.00
2017,02,22,04,35,0.00
2017,02,22,04,36,0.00
2017,02,22,04,37,0.00
2017,02,22,04,38,0.00
2017,02,22,04,39,0.00
2017,02,22,04,40,0.00
2017,02,22,04,41,0.00
2017,02,22,04,42,0.00
2017,02,22,04,43,0.00
2017,02,22,04,44,0.00
2017,02,22,04,45,0.00
2017,02,22,04,46,0.00
2017,02,22,04,47,0.00
2017,02,22,04,48,0.00
2017,02,22,04,49,0.00
2017,02,22,04,50,0.00
2017,02,22,04,51,0.00
2017,02,22,04,52,0.00
2017,02,22,04,53,0.00
2017,02,22,04,54,0.00
2017,02,22,04,55,0.00
2017,02,22,04,56,0.00
2017,02,22,04,57,0.00
2017,02,22,04,58,0.00
2017,02,22,04,59,0.00
2017,02,22,05,00,0.00
2017,02,22,05,01,0.00
2017,02,22,05,02,0.00
2017,02,22,05,03,0.00
2017,02,22,05,04,0.00
2017,02,22,05,05,0.00
2017,02,22,05,06,0.00
2017,02,22,05,07,0.00
2017,02,22,05,08,0.00
2017,02,22,05,09,0.00
2017,02,22,05,10,0.00
2017,02,22,05,11,0.00
2017,02,22,05,12,0.00
2017,02,22,05,13,0.00
2017,02,22,05,14,0.00
2017,02,22,05,15,0.00
2017,02,22,05,16,0.00
2017,02,22,05,17,0.00
2017,02,22,05,18,0.00
2017,02,22,05,19,0.00
2017,02,22,05,20,0.00
2017,02,22,05,21,0.00
2017,02,22,05,22,0.00
2017,02,22,05,23,0.00
2017,02,22,05,24,0.00
2017,02,22,05,25,0.00
2017,02,22,05,26,0.00
2017,02,22,05,27,0.00
2017,02,22,05,28,0.00
2017,02,22,05,29,0.00
2017,02,22,05,30,0.00
2017,02,22,05,31,0.00
2017,02,22,05,32,0.00
2017,02,22,05,33,0.00
2017,02,22,05,34,0.00
2017,02,22,05,35,0.00
2017,02,22,05,36,0.00
2017,02,22,05,37,0.00
2017,02,22,05,38,0.00
2017,02,22,05,39,0.00
2017,02,22,05,40,0.00
2017,02,22,05,41,0.00
2017,02,22,05,42,0.00
2017,02,22,05,43,0.00
2017,02,22,05,44,0.00
2017,02,22,05,45,0.00
2017,02,22,05,46,0.00
2017,02,22,05,47,0.00
2017,02,22,05,48,0.00
2017,02,22,05,49,0.00
2017,02,22,05,50,0.00
2017,02,22,05,51,0.00
2017,02,22,05,52,0.00
2017,02,22,05,53,0.00
2017,02,22,05,54,0.00
2017,02,22,05,55,0.00
2017,02,22,05,56,0.00
2017,02,22,05,57,0.00
2017,02,22,05,58,0.00
2017,02,22,05,59,0.00
2017,02,22,06,00,0.00
2017,02,22,06,01,0.00
2017,02,22,06,02,0.00
2017,02,22,06,03,0.00
2017,02,22,06,04,0.00
2017,02,22,06,05,0.00
2017,02,22,06,06,0.00
2017,02,22,06,07,0.00
2017,02,22,06,08,0.00
2017,02,22,06,09,0.00
2017,02,22,06,10,0.00
2017,02,22,06,11,0.00
2017,02,22,06,12,0.00
2017,02,22,06,13,0.00
2017,02,22,06,14,0.00
2017,02,22,06,15,0.00
2017,02,22,06,16,0.00
2017,02,22,06,17,0.00
2017,02,22,06,18,0.00
2017,02,22,06,19,0.00
2017,02,22,06,20,0.00
2017,02,22,06,21,0.00
2017,02,22,06,22,0.00
2017,02,22,06,23,0.00
2017,02,22,06,24,0.00
2017,02,22,06,25,0.00
2017,02,22,06,26,0.00
2017,02,22,06,27,0.00
2017,02,22,06,28,0.00
2017,02,22,06,29,0.00
2017,02,22,06,30,0.00
2017,02,22,06,31,0.00
2017,02,22,06,32,0.00
2017,02,22,06,33,0.00
2017,02,22,06,34,0.00
2017,02,22,06,35,0.00
2017,02,22,06,36,0.00
2017,02,22,06,37,0.00
2017,02,22,06,38,0.00
2017,02,22,06,39,0.00
2017,02,22,06,40,0.00
2017,02,22,06,41,0.00
2017,02,22,06,42,0.00
2017,02,22,06,43,0.00
2017,02,22,06,44,0.00
2017,02,22,06,45,0.00
2017,02,22,06,46,0.00
2017,02,22,06,47,0.00
2017,02,22,06,48,0.00
2017,02,22,06,49,0.00
2017,02,22,06,50,0.00
2017,02,22,06,51,0.00
2017,02,22,06,52,0.00
2017,02,22,06,53,0.00
2017,02,22,06,54,0.00
2017,02,22,06,55,0.00
2017,02,22,06,56,0.00
2017,02,22,06,57,0.00
2017,02,22,06,58,0.00
2017,02,22,06,59,0.00
2017,02,22,07,00,0.00
2017,02,22,07,01,0.00
2017,02,22,07,02,0.00
2017,02,22,07,03,0.00
2017,02,22,07,04,0.00
2017,02,22,07,05,0.00
2017,02,22,07,06,0.00
2017,02,22,07,07,0.00
2017,02,22,07,08,0.00
2017,02,22,07,09,0.00
2017,02,22,07,10,0.70
2017,02,22,07,11,5.00
2017,02,22,07,12,5.00
2017,02,22,07,13,5.00
2017,02,22,07,14,5.00
2017,02,22,07,15,5.00
2017,02,22,07,16,6.80
2017,02,22,07,17,7.00
2017,02,22,07,18,7.00
2017,02,22,07,19,7.00
2017,02,22,07,20,8.10
2017,02,22,07,21,9.00
2017,02,22,07,22,9.00
2017,02,22,07,23,9.10
2017,02,22,07,24,11.00
2017,02,22,07,25,11.00
2017,02,22,07,26,11.00
2017,02,22,07,27,11.60
2017,02,22,07,28,12.00
2017,02,22,07,29,12.00
2017,02,22,07,30,13.90
2017,02,22,07,31,14.40
2017,02,22,07,32,17.00
2017,02,22,07,33,19.00
2017,02,22,07,34,20.20
2017,02,22,07,35,21.00
2017,02,22,07,36,21.00
2017,02,22,07,37,21.10
2017,02,22,07,38,23.00
2017,02,22,07,39,23.70
2017,02,22,07,40,25.00
2017,02,22,07,41,25.60
2017,02,22,07,42,26.00
2017,02,22,07,43,27.70
2017,02,22,07,44,28.20
2017,02,22,07,45,30.00
2017,02,22,07,46,30.00
2017,02,22,07,47,31.00
2017,02,22,07,48,32.00
2017,02,22,07,49,32.80
2017,02,22,07,50,33.00
2017,02,22,07,51,35.20
2017,02,22,07,52,37.50
2017,02,22,07,53,39.00
2017,02,22,07,54,38.00
2017,02,22,07,55,37.00
2017,02,22,07,56,38.50
2017,02,22,07,57,39.00
2017,02,22,07,58,40.00
2017,02,22,07,59,40.60
2017,02,22,08,00,42.00
2017,02,22,08,01,42.00
2017,02,22,08,02,42.00
2017,02,22,08,03,43.50
2017,02,22,08,04,44.00
2017,02,22,08,05,46.10
2017,02,22,08,06,47.60
2017,02,22,08,07,49.80
2017,02,22,08,08,52.50
2017,02,22,08,09,56.60
2017,02,22,08,10,61.20
2017,02,22,08,11,66.50
2017,02,22,08,12,70.90
2017,02,22,08,13,76.30
2017,02,22,08,14,77.80
2017,02,22,08,15,79.00
2017,02,22,08,16,79.00
2017,02,22,08,17,80.60
2017,02,22,08,18,81.10
2017,02,22,08,19,83.00
2017,02,22,08,20,82.40
2017,02,22,08,21,80.10
2017,02,22,08,22,79.00
2017,02,22,08,23,79.00
2017,02,22,08,24,79.00
2017,02,22,08,25,80.90
2017,02,22,08,26,80.30
2017,02,22,08,27,76.70
2017,02,22,08,28,74.10
2017,02,22,08,29,70.80
2017,02,22,08,30,70.00
2017,02,22,08,31,69.20
2017,02,22,08,32,69.00
2017,02,22,08,33,69.00
2017,02,22,08,34,69.00
2017,02,22,08,35,69.50
2017,02,22,08,36,71.20
2017,02,22,08,37,72.00
2017,02,22,08,38,72.00
2017,02,22,08,39,73.90
2017,02,22,08,40,74.40
2017,02,22,08,41,76.00
2017,02,22,08,42,76.40
2017,02,22,08,43,77.00
2017,02,22,08,44,78.50
2017,02,22,08,45,79.00
2017,02,22,08,46,79.30
2017,02,22,08,47,81.00
2017,02,22,08,48,81.00
2017,02,22,08,49,81.00
2017,02,22,08,50,82.30
2017,02,22,08,51,83.00
2017,02,22,08,52,83.00
2017,02,22,08,53,84.00
2017,02,22,08,54,84.00
2017,02,22,08,55,84.80
2017,02,22,08,56,86.00
2017,02,22,08,57,86.00
2017,02,22,08,58,87.60
2017,02,22,08,59,89.80
2017,02,22,09,00,90.00
2017,02,22,09,01,90.00
2017,02,22,09,02,89.20
2017,02,22,09,03,88.00
2017,02,22,09,04,86.70
2017,02,22,09,05,87.60
2017,02,22,09,06,88.10
2017,02,22,09,07,92.10
2017,02,22,09,08,100.60
2017,02,22,09,09,148.50
2017,02,22,09,10,244.00
2017,02,22,09,11,273.70
2017,02,22,09,12,311.90
2017,02,22,09,13,320.90
2017,02,22,09,14,283.00
2017,02,22,09,15,236.20
2017,02,22,09,16,128.30
2017,02,22,09,17,132.30
2017,02,22,09,18,134.70
2017,02,22,09,19,136.70
2017,02,22,09,20,138.90
2017,02,22,09,21,141.00
2017,02,22,09,22,141.00
2017,02,22,09,23,141.40
2017,02,22,09,24,144.30
2017,02,22,09,25,151.20
2017,02,22,09,26,192.70
2017,02,22,09,27,166.60
2017,02,22,09,28,164.00
2017,02,22,09,29,168.70
2017,02,22,09,30,193.80
2017,02,22,09,31,225.40
2017,02,22,09,32,251.10
2017,02,22,09,33,212.00
2017,02,22,09,34,204.00
2017,02,22,09,35,192.60
2017,02,22,09,36,155.60
2017,02,22,09,37,154.00
2017,02,22,09,38,153.00
2017,02,22,09,39,153.00
2017,02,22,09,40,153.00
2017,02,22,09,41,152.70
2017,02,22,09,42,150.50
2017,02,22,09,43,147.80
2017,02,22,09,44,146.00
2017,02,22,09,45,152.70
2017,02,22,09,46,156.00
2017,02,22,09,47,229.60
2017,02,22,09,48,168.80
2017,02,22,09,49,154.00
2017,02,22,09,50,148.60
2017,02,22,09,51,149.60
2017,02,22,09,52,153.70
2017,02,22,09,53,171.80
2017,02,22,09,54,163.30
2017,02,22,09,55,161.60
2017,02,22,09,56,160.70
2017,02,22,09,57,164.10
2017,02,22,09,58,217.30
2017,02,22,09,59,255.00
2017,02,22,10,00,318.20
2017,02,22,10,01,305.80
2017,02,22,10,02,229.50
2017,02,22,10,03,287.00
2017,02,22,10,04,363.70
2017,02,22,10,05,463.70
2017,02,22,10,06,461.30
2017,02,22,10,07,461.00
2017,02,22,10,08,461.10
2017,02,22,10,09,461.80
2017,02,22,10,10,460.30
2017,02,22,10,11,457.20
2017,02,22,10,12,454.40
2017,02,22,10,13,454.00
2017,02,22,10,14,454.80
2017,02,22,10,15,457.50
2017,02,22,10,16,464.00
2017,02,22,10,17,466.50
2017,02,22,10,18,472.00
2017,02,22,10,19,475.90
2017,02,22,10,20,480.90
2017,02,22,10,21,482.00
2017,02,22,10,22,480.30
2017,02,22,10,23,427.50
2017,02,22,10,24,476.60
2017,02,22,10,25,502.00
2017,02,22,10,26,501.00
2017,02,22,10,27,492.00
2017,02,22,10,28,508.00
2017,02,22,10,29,515.00
2017,02,22,10,30,441.30
2017,02,22,10,31,257.00
2017,02,22,10,32,406.50
2017,02,22,10,33,533.00
2017,02,22,10,34,537.20
2017,02,22,10,35,544.00
2017,02,22,10,36,558.00
2017,02,22,10,37,566.10
2017,02,22,10,38,561.50
2017,02,22,10,39,569.10
2017,02,22,10,40,591.00
2017,02,22,10,41,591.00
2017,02,22,10,42,591.00
2017,02,22,10,43,485.00
2017,02,22,10,44,472.50
2017,02,22,10,45,464.70
2017,02,22,10,46,499.00
2017,02,22,10,47,336.30
2017,02,22,10,48,248.00
2017,02,22,10,49,244.70
2017,02,22,10,50,256.70
2017,02,22,10,51,264.00
2017,02,22,10,52,264.00
2017,02,22,10,53,248.20
2017,02,22,10,54,229.70
2017,02,22,10,55,223.70
2017,02,22,10,56,221.00
2017,02,22,10,57,219.60
2017,02,22,10,58,215.30
2017,02,22,10,59,204.90
2017,02,22,11,00,199.40
2017,02,22,11,01,194.10
2017,02,22,11,02,190.40
2017,02,22,11,03,190.20
2017,02,22,11,04,192.20
2017,02,22,11,05,194.40
2017,02,22,11,06,198.40
2017,02,22,11,07,201.10
2017,02,22,11,08,202.00
2017,02,22,11,09,203.70
2017,02,22,11,10,205.70
2017,02,22,11,11,203.50
2017,02,22,11,12,203.30
2017,02,22,11,13,210.80
2017,02,22,11,14,209.10
2017,02,22,11,15,197.70
2017,02,22,11,16,192.40
2017,02,22,11,17,190.00
2017,02,22,11,18,190.80
2017,02,22,11,19,194.40
2017,02,22,11,20,199.60
2017,02,22,11,21,206.60
2017,02,22,11,22,218.10
2017,02,22,11,23,240.80
2017,02,22,11,24,233.00
2017,02,22,11,25,239.00
2017,02,22,11,26,239.00
2017,02,22,11,27,234.10
2017,02,22,11,28,207.10
2017,02,22,11,29,187.80
2017,02,22,11,30,183.30
2017,02,22,11,31,178.60
2017,02,22,11,32,175.00
2017,02,22,11,33,170.10
2017,02,22,11,34,164.40
2017,02,22,11,35,160.70
2017,02,22,11,36,161.60
2017,02,22,11,37,163.10
2017,02,22,11,38,167.80
2017,02,22,11,39,171.00
2017,02,22,11,40,170.10
2017,02,22,11,41,167.90
2017,02,22,11,42,168.40
2017,02,22,11,43,184.50
2017,02,22,11,44,184.00
2017,02,22,11,45,245.80
2017,02,22,11,46,302.70
2017,02,22,11,47,345.00
2017,02,22,11,48,447.30
2017,02,22,11,49,595.30
2017,02,22,11,50,621.00
2017,02,22,11,51,621.00
2017,02,22,11,52,621.00
2017,02,22,11,53,632.70
2017,02,22,11,54,656.50
2017,02,22,11,55,662.10
2017,02,22,11,56,675.50
2017,02,22,11,57,685.90
2017,02,22,11,58,715.00
2017,02,22,11,59,629.50
2017,02,22,12,00,362.00
2017,02,22,12,01,408.00
2017,02,22,12,02,408.00
2017,02,22,12,03,350.10
2017,02,22,12,04,327.00
2017,02,22,12,05,351.30
2017,02,22,12,06,497.00
2017,02,22,12,07,411.30
2017,02,22,12,08,259.40
2017,02,22,12,09,241.50
2017,02,22,12,10,226.80
2017,02,22,12,11,210.80
2017,02,22,12,12,199.60
2017,02,22,12,13,199.70
2017,02,22,12,14,219.90
2017,02,22,12,15,206.10
2017,02,22,12,16,178.00
2017,02,22,12,17,178.00
2017,02,22,12,18,129.00
2017,02,22,12,19,146.00
2017,02,22,12,20,184.50
2017,02,22,12,21,164.10
2017,02,22,12,22,171.00
2017,02,22,12,23,191.40
2017,02,22,12,24,197.00
2017,02,22,12,25,540.30
2017,02,22,12,26,573.00
2017,02,22,12,27,573.00
2017,02,22,12,28,487.30
2017,02,22,12,29,373.00
2017,02,22,12,30,552.40
2017,02,22,12,31,642.10
2017,02,22,12,32,640.00
2017,02,22,12,33,553.60
2017,02,22,12,34,164.10
2017,02,22,12,35,162.40
2017,02,22,12,36,167.40
2017,02,22,12,37,181.00
2017,02,22,12,38,194.60
2017,02,22,12,39,275.10
2017,02,22,12,40,279.00
2017,02,22,12,41,257.70
2017,02,22,12,42,206.80
2017,02,22,12,43,201.70
2017,02,22,12,44,196.50
2017,02,22,12,45,193.40
2017,02,22,12,46,193.20
2017,02,22,12,47,196.70
2017,02,22,12,48,207.60
2017,02,22,12,49,230.00
2017,02,22,12,50,241.00
2017,02,22,12,51,560.90
2017,02,22,12,52,698.00
2017,02,22,12,53,236.00
2017,02,22,12,54,330.60
2017,02,22,12,55,676.50
2017,02,22,12,56,686.00
2017,02,22,12,57,686.60
2017,02,22,12,58,687.00
2017,02,22,12,59,687.00
2017,02,22,13,00,695.60
2017,02,22,13,01,696.50
2017,02,22,13,02,698.00
2017,02,22,13,03,698.00
2017,02,22,13,04,416.70
2017,02,22,13,05,279.80
2017,02,22,13,06,281.00
2017,02,22,13,07,694.10
2017,02,22,13,08,678.90
2017,02,22,13,09,684.80
2017,02,22,13,10,686.00
2017,02,22,13,11,639.80
2017,02,22,13,12,615.00
2017,02,22,13,13,615.00
2017,02,22,13,14,615.00
2017,02,22,13,15,546.00
2017,02,22,13,16,323.80
2017,02,22,13,17,293.20
2017,02,22,13,18,242.30
2017,02,22,13,19,213.40
2017,02,22,13,20,219.10
2017,02,22,13,21,220.00
2017,02,22,13,22,201.70
2017,02,22,13,23,160.90
2017,02,22,13,24,151.20
2017,02,22,13,25,144.00
2017,02,22,13,26,204.50
2017,02,22,13,27,218.00
2017,02,22,13,28,218.00
2017,02,22,13,29,218.00
2017,02,22,13,30,208.50
2017,02,22,13,31,174.70
2017,02,22,13,32,199.40
2017,02,22,13,33,227.30
2017,02,22,13,34,217.80
2017,02,22,13,35,295.00
2017,02,22,13,36,233.70
2017,02,22,13,37,107.80
2017,02,22,13,38,98.90
2017,02,22,13,39,87.70
2017,02,22,13,40,78.10
2017,02,22,13,41,68.80
2017,02,22,13,42,62.30
2017,02,22,13,43,59.20
2017,02,22,13,44,57.10
2017,02,22,13,45,54.80
2017,02,22,13,46,53.30
2017,02,22,13,47,53.00
2017,02,22,13,48,51.00
2017,02,22,13,49,51.00
2017,02,22,13,50,51.70
2017,02,22,13,51,53.50
2017,02,22,13,52,55.20
2017,02,22,13,53,57.50
2017,02,22,13,54,61.60
2017,02,22,13,55,65.70
2017,02,22,13,56,71.50
2017,02,22,13,57,78.80
2017,02,22,13,58,86.70
2017,02,22,13,59,95.30
2017,02,22,14,00,101.00
2017,02,22,14,01,103.90
2017,02,22,14,02,105.30
2017,02,22,14,03,107.50
2017,02,22,14,04,109.00
2017,02,22,14,05,109.00
2017,02,22,14,06,109.00
2017,02,22,14,07,107.40
2017,02,22,14,08,108.80
2017,02,22,14,09,139.00
2017,02,22,14,10,155.50
2017,02,22,14,11,149.10
2017,02,22,14,12,125.20
2017,02,22,14,13,151.60
2017,02,22,14,14,183.00
2017,02,22,14,15,202.80
2017,02,22,14,16,211.60
2017,02,22,14,17,215.80
2017,02,22,14,18,246.60
2017,02,22,14,19,286.90
2017,02,22,14,20,336.70
2017,02,22,14,21,360.70
2017,02,22,14,22,423.90
2017,02,22,14,23,427.40
2017,02,22,14,24,432.60
2017,02,22,14,25,442.70
2017,02,22,14,26,443.90
2017,02,22,14,27,441.60
2017,02,22,14,28,439.30
2017,02,22,14,29,438.90
2017,02,22,14,30,438.00
2017,02,22,14,31,438.00
2017,02,22,14,32,438.00
2017,02,22,14,33,438.00
2017,02,22,14,34,438.00
2017,02,22,14,35,438.90
2017,02,22,14,36,441.00
2017,02,22,14,37,441.80
2017,02,22,14,38,445.40
2017,02,22,14,39,446.00
2017,02,22,14,40,446.00
2017,02,22,14,41,451.70
2017,02,22,14,42,456.60
2017,02,22,14,43,445.60
2017,02,22,14,44,404.00
2017,02,22,14,45,328.80
2017,02,22,14,46,215.00
2017,02,22,14,47,193.60
2017,02,22,14,48,145.80
2017,02,22,14,49,128.60
2017,02,22,14,50,89.90
2017,02,22,14,51,81.20
2017,02,22,14,52,76.60
2017,02,22,14,53,76.00
2017,02,22,14,54,76.00
2017,02,22,14,55,76.00
2017,02,22,14,56,75.90
2017,02,22,14,57,73.40
2017,02,22,14,58,69.10
2017,02,22,14,59,67.00
2017,02,22,15,00,67.00
2017,02,22,15,01,68.30
2017,02,22,15,02,69.00
2017,02,22,15,03,69.00
2017,02,22,15,04,69.00
2017,02,22,15,05,68.40
2017,02,22,15,06,66.10
2017,02,22,15,07,63.90
2017,02,22,15,08,62.30
2017,02,22,15,09,60.40
2017,02,22,15,10,60.00
2017,02,22,15,11,59.70
2017,02,22,15,12,58.00
2017,02,22,15,13,58.00
2017,02,22,15,14,56.80
2017,02,22,15,15,56.00
2017,02,22,15,16,56.00
2017,02,22,15,17,56.00
2017,02,22,15,18,56.00
2017,02,22,15,19,56.00
2017,02,22,15,20,56.00
2017,02,22,15,21,56.00
2017,02,22,15,22,56.00
2017,02,22,15,23,56.00
2017,02,22,15,24,56.00
2017,02,22,15,25,56.40
2017,02,22,15,26,58.00
2017,02,22,15,27,58.00
2017,02,22,15,28,59.20
2017,02,22,15,29,60.00
2017,02,22,15,30,60.00
2017,02,22,15,31,62.00
2017,02,22,15,32,62.00
2017,02,22,15,33,62.00
2017,02,22,15,34,62.00
2017,02,22,15,35,62.00
2017,02,22,15,36,62.00
2017,02,22,15,37,62.90
2017,02,22,15,38,65.00
2017,02,22,15,39,64.50
2017,02,22,15,40,63.00
2017,02,22,15,41,74.00
2017,02,22,15,42,109.40
2017,02,22,15,43,125.00
2017,02,22,15,44,233.80
2017,02,22,15,45,182.40
2017,02,22,15,46,213.00
2017,02,22,15,47,227.70
2017,02,22,15,48,229.40
2017,02,22,15,49,202.30
2017,02,22,15,50,124.50
2017,02,22,15,51,71.90
2017,02,22,15,52,61.40
2017,02,22,15,53,56.60
2017,02,22,15,54,51.30
2017,02,22,15,55,48.00
2017,02,22,15,56,46.40
2017,02,22,15,57,44.40
2017,02,22,15,58,44.00
2017,02,22,15,59,44.00
2017,02,22,16,00,44.00
2017,02,22,16,01,44.00
2017,02,22,16,02,45.20
2017,02,22,16,03,46.00
2017,02,22,16,04,46.00
2017,02,22,16,05,46.00
2017,02,22,16,06,46.00
2017,02,22,16,07,46.00
2017,02,22,16,08,46.00
2017,02,22,16,09,46.00
2017,02,22,16,10,44.50
2017,02,22,16,11,44.00
2017,02,22,16,12,43.80
2017,02,22,16,13,42.00
2017,02,22,16,14,41.30
2017,02,22,16,15,39.50
2017,02,22,16,16,39.00
2017,02,22,16,17,37.50
2017,02,22,16,18,37.00
2017,02,22,16,19,35.00
2017,02,22,16,20,35.00
2017,02,22,16,21,34.20
2017,02,22,16,22,33.00
2017,02,22,16,23,33.00
2017,02,22,16,24,32.20
2017,02,22,16,25,32.00
2017,02,22,16,26,31.80
2017,02,22,16,27,30.00
2017,02,22,16,28,30.00
2017,02,22,16,29,30.00
2017,02,22,16,30,30.00
2017,02,22,16,31,30.00
2017,02,22,16,32,30.00
2017,02,22,16,33,30.00
2017,02,22,16,34,30.00
2017,02,22,16,35,30.00
2017,02,22,16,36,30.00
2017,02,22,16,37,30.00
2017,02,22,16,38,30.00
2017,02,22,16,39,30.00
2017,02,22,16,40,30.00
2017,02,22,16,41,30.00
2017,02,22,16,42,30.00
2017,02,22,16,43,31.00
2017,02,22,16,44,32.00
2017,02,22,16,45,32.00
2017,02,22,16,46,32.00
2017,02,22,16,47,32.00
2017,02,22,16,48,32.30
2017,02,22,16,49,33.00
2017,02,22,16,50,33.00
2017,02,22,16,51,33.00
2017,02,22,16,52,33.00
2017,02,22,16,53,33.00
2017,02,22,16,54,33.00
2017,02,22,16,55,33.00
2017,02,22,16,56,33.00
2017,02,22,16,57,32.40
2017,02,22,16,58,32.00
2017,02,22,16,59,32.00
2017,02,22,17,00,30.10
2017,02,22,17,01,30.00
2017,02,22,17,02,29.40
2017,02,22,17,03,28.00
2017,02,22,17,04,28.00
2017,02,22,17,05,26.60
2017,02,22,17,06,26.00
2017,02,22,17,07,25.90
2017,02,22,17,08,25.00
2017,02,22,17,09,25.00
2017,02,22,17,10,25.00
2017,02,22,17,11,23.80
2017,02,22,17,12,23.00
2017,02,22,17,13,23.00
2017,02,22,17,14,21.00
2017,02,22,17,15,21.00
2017,02,22,17,16,20.20
2017,02,22,17,17,19.00
2017,02,22,17,18,18.40
2017,02,22,17,19,18.00
2017,02,22,17,20,16.30
2017,02,22,17,21,16.00
2017,02,22,17,22,15.50
2017,02,22,17,23,14.00
2017,02,22,17,24,12.90
2017,02,22,17,25,12.00
2017,02,22,17,26,11.30
2017,02,22,17,27,11.00